Regional Weather Roundup
Issued by NWS

Home | Current Version | Previous Version | Text Only | Print | Product List | Glossary Off
Versions: 1 2 3 4 5 6 7 8 9 10 11 12 13 14 15 16 17 18 19 20 21 22 23 24 25 26 27 28 29 30 31 32 33 34 35 36 37 38 39 40 41 42 43 44 45 46 47 48 49 50

300
ASUS43 KOAX 050810
RWRNE

WEATHER ROUNDUP FOR NEBRASKA
NATIONAL WEATHER SERVICE OMAHA NE
200 AM CST MON DEC 05 2016

NOTES: SATELLITE DATA IS BEING USED TO AUGMENT CLOUD COVER ABOVE
       12000 FEET.
       "FAIR" INDICATES FEW OR NO CLOUDS BELOW 12,000 FEET WITH NO
       SIGNIFICANT WEATHER AND/OR OBSTRUCTIONS TO VISIBILITY.

  * THESE STATIONS DO NOT REPORT WEATHER SUCH AS RAIN...SNOW OR FOG.

NEZ001>004-019>022-054>056-050900-
NEBRASKA PANHANDLE

CITY           SKY/WX    TMP DP  RH WIND       PRES   REMARKS
SCOTTSBLUFF    CLOUDY    44  19  36 CALM      29.61F
ALLIANCE       CLOUDY    40  20  44 SW8       29.59F WCI  34
CHADRON        PTCLDY    40  20  44 W5        29.55F
KIMBALL        CLOUDY    31  19  62 W9        29.66F WCI  23
SIDNEY         CLOUDY    39  15  37 SW10      29.65F WCI  32
$$

NEZ057>060-069>072-079>082-050900-
SOUTHWEST NEBRASKA

CITY           SKY/WX    TMP DP  RH WIND       PRES   REMARKS
NORTH PLATTE   MOCLDY    35  18  49 W6        29.69F WCI  30
IMPERIAL       CLOUDY    32  15  49 CALM      29.68F
LEXINGTON      CLOUDY    37  19  50 SW5       29.73S WCI  33
MCCOOK         CLOUDY    35  20  54 S6        29.71F WCI  30
OGALLALA       CLOUDY    37  20  50 W5        29.66S WCI  33
$$

NEZ005>010-023>029-035>040-094-050900-
NORTH CENTRAL NEBRASKA

CITY           SKY/WX    TMP DP  RH WIND       PRES   REMARKS
VALENTINE      PTCLDY    32  17  54 SW9       29.59F WCI  24
AINSWORTH      PTCLDY    35  19  52 SW13G18   29.61S WCI  26
BROKEN BOW     CLOUDY    37  20  50 SW10      29.68F WCI  30
O`NEILL        CLOUDY    36  21  56 S10       29.65S WCI  28
ORD            CLOUDY    35  20  54 SW7       29.68F WCI  29
THEDFORD       PTCLDY    35  19  51 SW7       29.64F WCI  30
$$

NEZ041-046>049-061>064-073>077-083>087-050900-
SOUTH CENTRAL NEBRASKA

CITY           SKY/WX    TMP DP  RH WIND       PRES   REMARKS
GRAND ISLAND   CLOUDY    37  26  64 S14       29.75F WCI  28
AURORA         PTCLDY    34  28  79 S10       29.77F WCI  26
HASTINGS       CLOUDY    35  25  66 S10       29.77F WCI  27
HEBRON         CLEAR     33  28  80 S9        29.83F WCI  26
HOLDREGE       PTCLDY    35  23  60 SW8G17    29.74F WCI  29
KEARNEY *      CLOUDY    36  21  55 SW15      29.74F WCI  26
YORK           PTCLDY    34  28  80 S13       29.79F WCI  25
$$

NEZ011>018-030>034-042>045-050900-
NORTHEAST NEBRASKA

CITY           SKY/WX    TMP DP  RH WIND       PRES   REMARKS
NORFOLK        CLOUDY    35  26  69 S16       29.72F WCI  25
ALBION         CLOUDY    35  27  72 S7        29.72F WCI  29
BLAIR          CLOUDY    33  31  91 S10       29.82S WCI  25
FREMONT        CLOUDY    35  30  83 S8        29.82S WCI  28
TEKAMAH        CLOUDY    33  30  88 S10       29.82F WCI  25
WAYNE          CLOUDY    32  28  85 CALM      29.76S
$$

NEZ050>053-065>068-078-088>093-050900-
SOUTHEAST NEBRASKA

CITY           SKY/WX    TMP DP  RH WIND       PRES   REMARKS
LINCOLN        PTCLDY    29  26  89 S7        29.85S WCI  22
OMAHA EPPLEY   CLOUDY    32  27  81 S9        29.85F WCI  24
BEATRICE       CLEAR     34  31  88 S9        29.85F WCI  27
FALLS CITY     CLOUDY    34  32  92 S12       29.90F WCI  25
NEBRASKA CITY  CLOUDY    34  32  93 SW10      29.87S WCI  26
PLATTSMOUTH    CLOUDY    34  30  85 S10       29.85S WCI  26
$$

NEZ044-045-051>053-067-050900-
OMAHA AREA

CITY           SKY/WX    TMP DP  RH WIND       PRES   REMARKS
OMAHA EPPLEY   CLOUDY    32  27  81 S9        29.85F WCI  24
BLAIR          CLOUDY    33  31  91 S10       29.82S WCI  25
FREMONT        CLOUDY    35  30  83 S8        29.82S WCI  28
MILLARD        CLOUDY    31  29  92 CALM      29.84F
OFFUTT AFB     CLOUDY    30  30 100 E3        29.85S
PLATTSMOUTH    CLOUDY    34  30  85 S10       29.85S WCI  26
WAHOO          FAIR      29  27  91 CALM      29.82F
$$




USA.gov is the U.S. government's official web portal to all federal, state and local government web resources and services.